Flag Weather past 2 weeks in Canterbury, England, United Kingdom

Now
45 °F

Cool.


Feels Like: 39 °F
Forecast: 41 / 47 °F
Wind: 13 mph from Northwest

Location: Manston

Current Time: Nov 24, 2014 at 1:13:40 AM

Latest Report: Nov 24, 2014 at 12:00 AM


Visibility: 11 mi

Pressure: 30.16 "Hg

Humidity: 88%

Dew point: 42 °F

Location of CanterburyLocation

Historic Weather in Canterbury — Graph

°F

Canterbury temperature yesterday

Maximum temperature yesterday: 55 °F (at 12:00 AM)
Minimum temperature yesterday: 44 °F (at 8:00 PM)
Average temperature yesterday: 50 °F

Past Weeks' High & Low Weather Summary

 TemperatureHumidityPressure
High57 °F (Nov 22, 12:00 PM)99% (Nov 22, 8:00 PM)30.29 "Hg (Nov 22, 8:00 PM)
Low44 °F (Nov 17, 7:00 AM)73% (Nov 12, 2:00 AM)29.38 "Hg (Nov 12, 12:00 AM)
Average50 °F90%29.76 "Hg
* Reported Nov 8 11:00 PM — Nov 23 11:00 PM, Canterbury, Weather by CustomWeather, © 2014

Note: Actual official high and low records may vary slightly from our data, if they occured in-between our weather recording intervals... More about our weather records

Advertising

Canterbury weather history for previous 24 hours

 ConditionsComfort  
Time TempWeatherWind HumidityBarometerVisibility
11:00 PM
Nov 23
45 °FCool.9 mph91%30.15 "Hg28 mi
10:00 PM45 °FLight rain. Overcast.10 mph90%30.12 "Hg28 mi
9:00 PM44 °FRain. Overcast.12 mph93%30.10 "Hg7 mi
8:00 PM44 °FRain. Overcast.14 mph93%30.09 "Hg6 mi
7:00 PM45 °FRain. Overcast.16 mph93%30.06 "Hg6 mi
6:00 PM45 °FRain. Overcast.20 mph93%30.05 "Hg6 mi
5:00 PM46 °FFreezing rain. Overcast.17 mph96%30.01 "Hg2 mi
4:00 PM46 °FRain. Overcast.17 mph96%30.00 "Hg4 mi
3:00 PM48 °FRain. Cloudy.16 mph97%29.99 "Hg4 mi
2:00 PM48 °FRain. Cloudy.16 mph96%29.98 "Hg5 mi
1:00 PM48 °FRain. Cloudy.20 mph95%29.97 "Hg7 mi
12:00 PM51 °FRain. Cloudy.15 mph98%29.97 "Hg1 mi
11:00 AM52 °FLight freezing rain. Cloudy.10 mph97%29.97 "Hg1 mi
10:00 AM55 °FFog.5 mph96%29.96 "Hg3 mi
9:00 AM54 °FFog.3 mph98%29.96 "Hg3 mi
8:00 AM52 °FFog.5 mph99%29.96 "Hg2 mi
7:00 AM53 °FFog.8 mph97%29.95 "Hg2 mi
6:00 AM54 °FFog.8 mph96%29.95 "Hg3 mi
5:00 AM54 °FFog.7 mph97%29.96 "Hg2 mi
4:00 AM55 °FFog.8 mph97%29.96 "Hg2 mi
3:00 AM55 °FFog.6 mph97%29.98 "Hg2 mi
2:00 AM54 °FFog.5 mph97%29.98 "Hg2 mi
1:00 AM55 °FFog.5 mph96%30.00 "Hg3 mi
Weather by CustomWeather, © 2014

See weather overviewHow to use our weather pages